Location: Observatoire
(46.1952°N, 5.3391°E)
Time: 06:20:04
(UTC+01:00)

A-11 Canister half - Pass Details

Date: 24 February 2026
Orbit: 1524 x 1683 km, 47.3° (Epoch: 13 March)

Event Time Altitude Azimuth Distance (km) Brightness Sun altitude
Rises 13:48:28 0° 200° (SSW) 4,784 12.7 33.0°
Reaches altitude 10° 13:52:05 10° 190° (S) 3,777 12.5 32.9°
Maximum altitude 13:59:55 30° 134° (SE) 2,507 10.7 32.4°
Drops below altitude 10° 14:07:37 10° 78° (ENE) 3,707 10.8 31.9°
Sets 14:11:05 0° 68° (ENE) 4,683 11.2 31.7°
